Time,TemperatureF,DewpointF,PressureIn,WindDirection,WindDirectionDegrees,WindSpeedMPH,WindSpeedGustMPH,Humidity,HourlyPrecipIn,Conditions,Clouds,dailyrainin,SoftwareType,DateUTC
2013-04-23 00:03:00,30.5,20.9,30.20,North,0,2.0,6.0,67,-99.99,,CLR,-99.99,VWS V14.01,2013-04-23 05:03:00,
2013-04-23 00:08:00,30.5,20.9,30.20,North,359,1.0,6.0,67,-99.99,,CLR,-99.99,VWS V14.01,2013-04-23 05:08:00,
2013-04-23 00:13:00,30.4,20.8,30.20,NNE,21,0.0,6.0,67,-99.99,,CLR,-99.99,VWS V14.01,2013-04-23 05:13:00,
2013-04-23 00:18:00,30.3,20.3,30.19,North,0,0.0,6.0,66,-99.99,,CLR,-99.99,VWS V14.01,2013-04-23 05:18:00,
2013-04-23 00:23:00,30.2,20.2,30.19,NNW,345,0.0,6.0,66,-99.99,,CLR,-99.99,VWS V14.01,2013-04-23 05:23:00,
2013-04-23 00:28:00,30.1,20.1,30.19,NNW,339,0.0,7.0,66,-99.99,,CLR,-99.99,VWS V14.01,2013-04-23 05:28:00,
2013-04-23 00:33:00,30.0,20.0,30.19,North,0,0.0,5.0,66,-99.99,,CLR,-99.99,VWS V14.01,2013-04-23 05:33:00,
2013-04-23 00:38:00,29.9,20.3,30.19,North,0,4.0,7.0,67,-99.99,,CLR,-99.99,VWS V14.01,2013-04-23 05:38:00,
2013-04-23 00:43:00,29.8,19.8,30.19,North,0,0.0,7.0,66,-99.99,,CLR,-99.99,VWS V14.01,2013-04-23 05:43:00,
2013-04-23 00:48:00,29.6,19.3,30.19,North,357,1.0,7.0,65,-99.99,,CLR,-99.99,VWS V14.01,2013-04-23 05:48:00,
2013-04-23 00:53:00,29.5,18.8,30.19,North,6,0.0,7.0,64,-99.99,,CLR,-99.99,VWS V14.01,2013-04-23 05:53:00,
2013-04-23 00:58:00,29.4,18.7,30.19,NNE,14,0.0,0.0,64,-99.99,,CLR,-99.99,VWS V14.01,2013-04-23 05:58:00,
2013-04-23 01:03:00,29.3,18.6,30.19,North,0,0.0,3.0,64,-99.99,,CLR,-99.99,VWS V14.01,2013-04-23 06:03:00,
2013-04-23 01:08:00,29.1,18.5,30.19,North,0,0.0,5.0,64,-99.99,,CLR,-99.99,VWS V14.01,2013-04-23 06:08:00,
2013-04-23 01:13:00,29.0,18.4,30.19,North,0,0.0,5.0,64,-99.99,,CLR,-99.99,VWS V14.01,2013-04-23 06:13:00,
2013-04-23 01:18:00,28.9,18.3,30.19,North,3,3.0,5.0,64,-99.99,,CLR,-99.99,VWS V14.01,2013-04-23 06:18:00,
2013-04-23 01:23:00,28.7,18.1,30.19,North,359,0.0,5.0,64,-99.99,,CLR,-99.99,VWS V14.01,2013-04-23 06:23:00,
2013-04-23 01:28:00,28.6,18.3,30.19,North,1,2.0,3.0,65,-99.99,,OVC050,-99.99,VWS V14.01,2013-04-23 06:28:00,
2013-04-23 01:33:00,28.5,17.9,30.18,North,3,0.0,4.0,64,-99.99,,OVC050,-99.99,VWS V14.01,2013-04-23 06:33:00,
2013-04-23 01:38:00,28.4,18.1,30.18,North,2,0.0,4.0,65,-99.99,,OVC050,-99.99,VWS V14.01,2013-04-23 06:38:00,
2013-04-23 01:43:00,28.3,18.1,30.18,NNW,346,0.0,4.0,65,-99.99,,OVC050,-99.99,VWS V14.01,2013-04-23 06:43:00,
2013-04-23 01:48:00,28.2,18.0,30.18,North,0,0.0,5.0,65,-99.99,,OVC050,-99.99,VWS V14.01,2013-04-23 06:48:00,
2013-04-23 01:53:00,28.1,17.9,30.18,NNE,22,0.0,5.0,65,-99.99,,OVC050,-99.99,VWS V14.01,2013-04-23 06:53:00,
2013-04-23 01:58:00,28.0,17.8,30.18,North,353,0.0,0.0,65,-99.99,,OVC050,-99.99,VWS V14.01,2013-04-23 06:58:00,
2013-04-23 02:03:00,27.9,18.0,30.18,North,349,0.0,3.0,66,-99.99,,OVC050,-99.99,VWS V14.01,2013-04-23 07:03:00,
2013-04-23 02:08:00,27.7,17.8,30.18,North,0,2.0,4.0,66,-99.99,,OVC050,-99.99,VWS V14.01,2013-04-23 07:08:00,
2013-04-23 02:13:00,27.7,17.8,30.18,North,0,0.0,4.0,66,-99.99,,OVC050,-99.99,VWS V14.01,2013-04-23 07:13:00,
2013-04-23 02:18:00,27.5,17.6,30.17,North,0,0.0,4.0,66,-99.99,,OVC050,-99.99,VWS V14.01,2013-04-23 07:18:00,
2013-04-23 02:23:00,27.4,17.5,30.18,North,0,0.0,4.0,66,-99.99,,OVC050,-99.99,VWS V14.01,2013-04-23 07:23:00,
2013-04-23 02:28:00,27.3,17.5,30.17,North,0,0.0,0.0,66,-99.99,,CLR,-99.99,VWS V14.01,2013-04-23 07:28:00,
2013-04-23 02:33:00,27.2,17.7,30.17,North,0,0.0,2.0,67,-99.99,,CLR,-99.99,VWS V14.01,2013-04-23 07:33:00,
2013-04-23 02:38:00,27.2,17.7,30.17,North,359,0.0,4.0,67,-99.99,,CLR,-99.99,VWS V14.01,2013-04-23 07:38:00,
2013-04-23 02:43:00,27.1,17.6,30.17,NNW,348,0.0,4.0,67,-99.99,,CLR,-99.99,VWS V14.01,2013-04-23 07:43:00,
2013-04-23 02:48:00,27.0,17.5,30.17,North,0,0.0,4.0,67,-99.99,,CLR,-99.99,VWS V14.01,2013-04-23 07:48:00,
2013-04-23 02:53:00,27.0,17.9,30.17,NNW,332,0.0,4.0,68,-99.99,,CLR,-99.99,VWS V14.01,2013-04-23 07:53:00,
2013-04-23 02:58:00,26.9,17.4,30.17,North,5,0.0,0.0,67,-99.99,,CLR,-99.99,VWS V14.01,2013-04-23 07:58:00,
2013-04-23 03:03:00,26.8,17.3,30.17,North,6,0.0,0.0,67,-99.99,,CLR,-99.99,VWS V14.01,2013-04-23 08:03:00,
2013-04-23 03:08:00,26.7,17.2,30.17,North,1,0.0,0.0,67,-99.99,,CLR,-99.99,VWS V14.01,2013-04-23 08:08:00,
2013-04-23 03:13:00,26.6,17.5,30.17,North,357,0.0,3.0,68,-99.99,,CLR,-99.99,VWS V14.01,2013-04-23 08:13:00,
2013-04-23 03:18:00,26.5,17.4,30.17,North,0,0.0,3.0,68,-99.99,,CLR,-99.99,VWS V14.01,2013-04-23 08:18:00,
2013-04-23 03:23:00,26.4,18.0,30.17,North,0,0.0,3.0,70,-99.99,,CLR,-99.99,VWS V14.01,2013-04-23 08:23:00,
2013-04-23 03:28:00,26.2,18.1,30.17,North,0,0.0,0.0,71,-99.99,,CLR,-99.99,VWS V14.01,2013-04-23 08:28:00,
2013-04-23 03:33:00,26.1,18.0,30.17,North,0,0.0,0.0,71,-99.99,,CLR,-99.99,VWS V14.01,2013-04-23 08:33:00,
2013-04-23 03:38:00,26.1,18.0,30.17,North,0,0.0,0.0,71,-99.99,,CLR,-99.99,VWS V14.01,2013-04-23 08:38:00,
2013-04-23 03:43:00,25.9,17.8,30.17,North,0,0.0,0.0,71,-99.99,,CLR,-99.99,VWS V14.01,2013-04-23 08:43:00,
2013-04-23 03:48:00,25.9,17.8,30.17,North,0,0.0,0.0,71,-99.99,,CLR,-99.99,VWS V14.01,2013-04-23 08:48:00,
2013-04-23 03:53:00,25.8,17.7,30.16,North,7,0.0,0.0,71,-99.99,,CLR,-99.99,VWS V14.01,2013-04-23 08:53:00,
2013-04-23 03:58:00,25.7,17.3,30.16,North,7,0.0,0.0,70,-99.99,,CLR,-99.99,VWS V14.01,2013-04-23 08:58:00,
2013-04-23 04:03:00,25.6,17.2,30.17,North,7,0.0,0.0,70,-99.99,,CLR,-99.99,VWS V14.01,2013-04-23 09:03:00,
2013-04-23 04:08:00,25.5,17.4,30.16,North,0,0.0,1.0,71,-99.99,,CLR,-99.99,VWS V14.01,2013-04-23 09:08:00,
2013-04-23 04:13:00,25.3,17.2,30.16,North,0,0.0,1.0,71,-99.99,,CLR,-99.99,VWS V14.01,2013-04-23 09:13:00,
2013-04-23 04:18:00,25.2,17.1,30.16,North,0,0.0,1.0,71,-99.99,,CLR,-99.99,VWS V14.01,2013-04-23 09:18:00,
2013-04-23 04:23:00,25.1,17.4,30.16,North,0,0.0,1.0,72,-99.99,,CLR,-99.99,VWS V14.01,2013-04-23 09:23:00,
2013-04-23 04:28:00,25.0,17.3,30.16,North,1,0.0,0.0,72,-99.99,,CLR,-99.99,VWS V14.01,2013-04-23 09:28:00,
2013-04-23 04:33:00,25.0,17.3,30.16,North,0,0.0,0.0,72,-99.99,,CLR,-99.99,VWS V14.01,2013-04-23 09:33:00,
2013-04-23 04:38:00,25.0,17.6,30.16,North,0,0.0,1.0,73,-99.99,,CLR,-99.99,VWS V14.01,2013-04-23 09:38:00,
2013-04-23 04:43:00,25.0,17.3,30.16,NW,317,0.0,1.0,72,-99.99,,CLR,-99.99,VWS V14.01,2013-04-23 09:43:00,
2013-04-23 04:48:00,24.9,17.2,30.16,North,351,0.0,1.0,72,-99.99,,CLR,-99.99,VWS V14.01,2013-04-23 09:48:00,
2013-04-23 04:53:00,25.0,17.3,30.16,North,359,0.0,3.0,72,-99.99,,CLR,-99.99,VWS V14.01,2013-04-23 09:53:00,
2013-04-23 04:58:00,24.9,16.8,30.16,North,0,0.0,0.0,71,-99.99,,CLR,-99.99,VWS V14.01,2013-04-23 09:58:00,
2013-04-23 05:04:00,24.9,17.2,30.16,West,260,0.0,2.0,72,-99.99,,CLR,-99.99,VWS V14.01,2013-04-23 10:04:00,
2013-04-23 05:09:00,24.9,16.8,30.16,North,0,0.0,3.0,71,-99.99,,CLR,-99.99,VWS V14.01,2013-04-23 10:09:00,
2013-04-23 05:14:00,24.9,17.2,30.16,North,0,0.0,3.0,72,-99.99,,CLR,-99.99,VWS V14.01,2013-04-23 10:14:00,
2013-04-23 05:19:00,24.9,16.8,30.16,North,0,2.0,3.0,71,-99.99,,CLR,-99.99,VWS V14.01,2013-04-23 10:19:00,
2013-04-23 05:24:00,24.8,16.8,30.16,North,0,0.0,3.0,71,-99.99,,CLR,-99.99,VWS V14.01,2013-04-23 10:24:00,
2013-04-23 05:29:00,24.8,17.1,30.15,North,0,0.0,0.0,72,-99.99,,CLR,-99.99,VWS V14.01,2013-04-23 10:29:00,
2013-04-23 05:34:00,24.8,16.8,30.15,North,0,0.0,0.0,71,-99.99,,CLR,-99.99,VWS V14.01,2013-04-23 10:34:00,
2013-04-23 05:39:00,24.6,16.5,30.15,North,0,0.0,0.0,71,-99.99,,CLR,-99.99,VWS V14.01,2013-04-23 10:39:00,
2013-04-23 05:44:00,24.6,16.9,30.15,North,0,0.0,0.0,72,-99.99,,CLR,-99.99,VWS V14.01,2013-04-23 10:44:00,
2013-04-23 05:49:00,24.4,16.4,30.15,North,0,0.0,3.0,71,-99.99,,CLR,-99.99,VWS V14.01,2013-04-23 10:49:00,
2013-04-23 05:54:00,24.2,16.5,30.15,North,0,0.0,3.0,72,-99.99,,CLR,-99.99,VWS V14.01,2013-04-23 10:54:00,
2013-04-23 05:59:00,24.1,16.4,30.14,North,0,0.0,0.0,72,-99.99,,CLR,-99.99,VWS V14.01,2013-04-23 10:59:00,
2013-04-23 06:04:00,24.0,16.6,30.14,North,350,0.0,3.0,73,-99.99,,CLR,-99.99,VWS V14.01,2013-04-23 11:04:00,
2013-04-23 06:09:00,23.9,16.5,30.14,North,350,0.0,3.0,73,-99.99,,CLR,-99.99,VWS V14.01,2013-04-23 11:09:00,
2013-04-23 06:14:00,23.8,16.4,30.14,North,350,0.0,3.0,73,-99.99,,CLR,-99.99,VWS V14.01,2013-04-23 11:14:00,
2013-04-23 06:19:00,23.7,16.6,30.14,North,350,0.0,3.0,74,-99.99,,CLR,-99.99,VWS V14.01,2013-04-23 11:19:00,
2013-04-23 06:24:00,23.6,16.5,30.14,North,350,0.0,3.0,74,-99.99,,CLR,-99.99,VWS V14.01,2013-04-23 11:24:00,
2013-04-23 06:29:00,23.5,16.5,30.13,North,350,0.0,0.0,74,-99.99,,CLR,-99.99,VWS V14.01,2013-04-23 11:29:00,
2013-04-23 06:34:00,23.4,16.0,30.14,NNW,336,0.0,3.0,73,-99.99,,CLR,-99.99,VWS V14.01,2013-04-23 11:34:00,
2013-04-23 06:39:00,23.3,16.2,30.14,NNW,347,0.0,3.0,74,-99.99,,CLR,-99.99,VWS V14.01,2013-04-23 11:39:00,
2013-04-23 06:44:00,23.3,16.2,30.14,NNW,347,0.0,3.0,74,-99.99,,CLR,-99.99,VWS V14.01,2013-04-23 11:44:00,
2013-04-23 06:49:00,23.4,16.4,30.13,NNW,347,0.0,3.0,74,-99.99,,CLR,-99.99,VWS V14.01,2013-04-23 11:49:00,
2013-04-23 06:54:00,23.6,16.2,30.14,NNW,347,0.0,3.0,73,-99.99,,CLR,-99.99,VWS V14.01,2013-04-23 11:54:00,
2013-04-23 06:59:00,23.6,16.5,30.14,NNW,347,0.0,0.0,74,-99.99,,OVC050,-99.99,VWS V14.01,2013-04-23 11:59:00,
2013-04-23 07:04:00,24.3,17.2,30.14,NNW,347,0.0,0.0,74,-99.99,,OVC050,-99.99,VWS V14.01,2013-04-23 12:04:00,
2013-04-23 07:09:00,24.6,17.2,30.14,NNW,347,0.0,0.0,73,-99.99,,OVC050,-99.99,VWS V14.01,2013-04-23 12:09:00,
2013-04-23 07:14:00,25.2,17.5,30.14,NNW,347,0.0,0.0,72,-99.99,,OVC050,-99.99,VWS V14.01,2013-04-23 12:14:00,
2013-04-23 07:19:00,26.4,18.3,30.14,NNW,347,0.0,0.0,71,-99.99,,OVC050,-99.99,VWS V14.01,2013-04-23 12:19:00,
2013-04-23 07:24:00,27.3,18.1,30.13,NNW,347,0.0,0.0,68,-99.99,,OVC050,-99.99,VWS V14.01,2013-04-23 12:24:00,
2013-04-23 07:29:00,28.5,19.0,30.14,NNW,347,0.0,0.0,67,-99.99,,OVC050,-99.99,VWS V14.01,2013-04-23 12:29:00,
2013-04-23 07:34:00,29.4,18.7,30.14,NNW,347,0.0,0.0,64,-99.99,,OVC050,-99.99,VWS V14.01,2013-04-23 12:34:00,
2013-04-23 07:39:00,30.3,18.9,30.14,NNW,347,0.0,0.0,62,-99.99,,OVC050,-99.99,VWS V14.01,2013-04-23 12:39:00,
2013-04-23 07:44:00,31.6,19.7,30.14,NNW,347,0.0,0.0,61,-99.99,,OVC050,-99.99,VWS V14.01,2013-04-23 12:44:00,
2013-04-23 07:49:00,32.5,18.6,30.14,NNW,347,0.0,0.0,56,-99.99,,OVC050,-99.99,VWS V14.01,2013-04-23 12:49:00,
2013-04-23 07:54:00,33.5,20.7,30.14,North,0,0.0,0.0,59,-99.99,,OVC050,-99.99,VWS V14.01,2013-04-23 12:54:00,
2013-04-23 07:59:00,34.4,20.3,30.14,NE,37,0.0,1.0,56,-99.99,,BKN048,-99.99,VWS V14.01,2013-04-23 12:59:00,
2013-04-23 08:04:00,35.1,20.6,30.14,NE,37,0.0,4.0,55,-99.99,,BKN048,-99.99,VWS V14.01,2013-04-23 13:04:00,
2013-04-23 08:09:00,34.9,20.0,30.14,NNE,21,0.0,4.0,54,-99.99,,BKN048,-99.99,VWS V14.01,2013-04-23 13:09:00,
2013-04-23 08:14:00,35.5,20.5,30.14,NNE,15,0.0,4.0,54,-99.99,,BKN048,-99.99,VWS V14.01,2013-04-23 13:14:00,
2013-04-23 08:19:00,35.9,22.2,30.14,NNE,15,0.0,4.0,57,-99.99,,BKN048,-99.99,VWS V14.01,2013-04-23 13:19:00,
2013-04-23 08:24:00,36.4,21.8,30.14,NNE,15,0.0,4.0,55,-99.99,,BKN048,-99.99,VWS V14.01,2013-04-23 13:24:00,
2013-04-23 08:29:00,36.5,21.0,30.14,NNE,15,2.0,3.0,53,-99.99,,BKN048,-99.99,VWS V14.01,2013-04-23 13:29:00,
2013-04-23 08:34:00,36.6,22.0,30.14,NNW,328,0.0,3.0,55,-99.99,,BKN048,-99.99,VWS V14.01,2013-04-23 13:34:00,
2013-04-23 08:39:00,36.3,20.8,30.14,NW,325,0.0,4.0,53,-99.99,,BKN048,-99.99,VWS V14.01,2013-04-23 13:39:00,
2013-04-23 08:44:00,36.5,21.0,30.14,NNW,330,0.0,4.0,53,-99.99,,BKN048,-99.99,VWS V14.01,2013-04-23 13:44:00,
2013-04-23 08:49:00,36.5,21.0,30.14,NNW,348,0.0,4.0,53,-99.99,,BKN048,-99.99,VWS V14.01,2013-04-23 13:49:00,
2013-04-23 08:54:00,36.4,20.5,30.14,North,0,3.0,4.0,52,-99.99,,BKN048,-99.99,VWS V14.01,2013-04-23 13:54:00,
2013-04-23 08:59:00,36.4,20.9,30.14,North,0,0.0,0.0,53,-99.99,,BKN048,-99.99,VWS V14.01,2013-04-23 13:59:00,
2013-04-23 09:04:00,36.5,21.5,30.14,North,3,0.0,0.0,54,-99.99,,BKN048,-99.99,VWS V14.01,2013-04-23 14:04:00,
2013-04-23 09:09:00,36.1,21.1,30.14,North,0,0.0,3.0,54,-99.99,,BKN048,-99.99,VWS V14.01,2013-04-23 14:09:00,
2013-04-23 09:14:00,36.0,21.4,30.14,North,1,0.0,4.0,55,-99.99,,BKN048,-99.99,VWS V14.01,2013-04-23 14:14:00,
2013-04-23 09:19:00,36.2,22.0,30.14,NW,322,1.0,4.0,56,-99.99,,BKN048,-99.99,VWS V14.01,2013-04-23 14:19:00,
2013-04-23 09:24:00,36.4,20.9,30.14,NW,316,0.0,5.0,53,-99.99,,BKN048,-99.99,VWS V14.01,2013-04-23 14:24:00,
2013-04-23 09:29:00,36.1,21.5,30.13,NNW,334,2.0,4.0,55,-99.99,,CLR,-99.99,VWS V14.01,2013-04-23 14:29:00,
2013-04-23 09:34:00,36.0,21.0,30.13,NNW,348,0.0,4.0,54,-99.99,,CLR,-99.99,VWS V14.01,2013-04-23 14:34:00,
2013-04-23 09:39:00,36.3,22.1,30.12,NW,310,0.0,4.0,56,-99.99,,CLR,-99.99,VWS V14.01,2013-04-23 14:39:00,
2013-04-23 09:44:00,36.6,22.0,30.12,WNW,287,1.0,6.0,55,-99.99,,CLR,-99.99,VWS V14.01,2013-04-23 14:44:00,
2013-04-23 09:49:00,36.9,21.8,30.12,WNW,297,0.0,6.0,54,-99.99,,CLR,-99.99,VWS V14.01,2013-04-23 14:49:00,
2013-04-23 09:54:00,36.7,21.2,30.12,NNW,347,0.0,6.0,53,-99.99,,CLR,-99.99,VWS V14.01,2013-04-23 14:54:00,
2013-04-23 09:59:00,36.3,21.3,30.13,NW,322,0.0,0.0,54,-99.99,,CLR,-99.99,VWS V14.01,2013-04-23 14:59:00,
2013-04-23 10:04:00,36.6,22.0,30.12,WNW,301,0.0,4.0,55,-99.99,,CLR,-99.99,VWS V14.01,2013-04-23 15:04:00,
2013-04-23 10:09:00,37.0,22.4,30.12,West,272,0.0,5.0,55,-99.99,,CLR,-99.99,VWS V14.01,2013-04-23 15:09:00,
2013-04-23 10:14:00,37.1,21.6,30.11,SW,234,0.0,7.0,53,-99.99,,CLR,-99.99,VWS V14.01,2013-04-23 15:14:00,
2013-04-23 10:19:00,37.5,23.7,30.11,West,273,0.0,7.0,57,-99.99,,CLR,-99.99,VWS V14.01,2013-04-23 15:19:00,
2013-04-23 10:24:00,37.2,21.7,30.11,WNW,289,1.0,7.0,53,-99.99,,CLR,-99.99,VWS V14.01,2013-04-23 15:24:00,
2013-04-23 10:29:00,37.1,22.0,30.11,NW,324,0.0,4.0,54,-99.99,,CLR,-99.99,VWS V14.01,2013-04-23 15:29:00,
2013-04-23 10:34:00,36.9,21.4,30.11,WNW,285,0.0,5.0,53,-99.99,,CLR,-99.99,VWS V14.01,2013-04-23 15:34:00,
2013-04-23 10:39:00,36.5,21.0,30.10,West,271,3.0,6.0,53,-99.99,,CLR,-99.99,VWS V14.01,2013-04-23 15:39:00,
2013-04-23 10:44:00,36.8,21.7,30.10,WSW,253,0.0,6.0,54,-99.99,,CLR,-99.99,VWS V14.01,2013-04-23 15:44:00,
2013-04-23 10:49:00,36.4,20.5,30.10,NNW,332,1.0,7.0,52,-99.99,,CLR,-99.99,VWS V14.01,2013-04-23 15:49:00,
2013-04-23 10:54:00,36.5,21.9,30.10,WNW,299,9.0,10.0,55,-99.99,,CLR,-99.99,VWS V14.01,2013-04-23 15:54:00,
2013-04-23 10:59:00,37.1,21.6,30.11,NW,308,3.0,4.0,53,-99.99,,CLR,-99.99,VWS V14.01,2013-04-23 15:59:00,
2013-04-23 11:04:00,37.1,20.2,30.10,NW,325,5.0,9.0,50,-99.99,,CLR,-99.99,VWS V14.01,2013-04-23 16:04:00,
2013-04-23 11:09:00,37.1,20.7,30.10,WNW,292,1.0,9.0,51,-99.99,,CLR,-99.99,VWS V14.01,2013-04-23 16:09:00,
2013-04-23 11:14:00,37.4,20.5,30.10,WNW,301,6.0,9.0,50,-99.99,,CLR,-99.99,VWS V14.01,2013-04-23 16:14:00,
2013-04-23 11:19:00,37.0,19.6,30.10,North,355,3.0,11.0,49,-99.99,,CLR,-99.99,VWS V14.01,2013-04-23 16:19:00,
2013-04-23 11:24:00,36.9,20.0,30.10,NNW,344,0.0,11.0,50,-99.99,,CLR,-99.99,VWS V14.01,2013-04-23 16:24:00,
2013-04-23 11:29:00,36.8,20.8,30.09,SW,233,3.0,7.0,52,-99.99,,CLR,-99.99,VWS V14.01,2013-04-23 16:29:00,
2013-04-23 11:34:00,37.1,19.7,30.09,West,281,0.0,7.0,49,-99.99,,CLR,-99.99,VWS V14.01,2013-04-23 16:34:00,
2013-04-23 11:40:00,37.4,19.0,30.09,NNW,335,0.0,7.0,47,-99.99,,CLR,-99.99,VWS V14.01,2013-04-23 16:40:00,
2013-04-23 11:45:00,37.5,21.0,30.09,WSW,246,0.0,9.0,51,-99.99,,CLR,-99.99,VWS V14.01,2013-04-23 16:45:00,
2013-04-23 11:50:00,37.8,20.8,30.09,WNW,301,5.0,10.0,50,-99.99,,CLR,-99.99,VWS V14.01,2013-04-23 16:50:00,
2013-04-23 11:55:00,37.3,19.9,30.09,NNW,330,0.0,10.0,49,-99.99,,CLR,-99.99,VWS V14.01,2013-04-23 16:55:00,
2013-04-23 12:00:00,37.2,19.8,30.08,West,269,2.0,6.0,49,-99.99,,CLR,-99.99,VWS V14.01,2013-04-23 17:00:00,
2013-04-23 12:05:00,37.7,20.3,30.08,NNE,17,0.0,6.0,49,-99.99,,CLR,-99.99,VWS V14.01,2013-04-23 17:05:00,
2013-04-23 12:10:00,37.7,19.3,30.08,NNW,336,4.0,7.0,47,-99.99,,CLR,-99.99,VWS V14.01,2013-04-23 17:10:00,
2013-04-23 12:15:00,37.6,19.7,30.08,NNW,328,0.0,8.0,48,-99.99,,CLR,-99.99,VWS V14.01,2013-04-23 17:15:00,
2013-04-23 12:20:00,37.5,19.1,30.08,West,273,0.0,10.0,47,-99.99,,CLR,-99.99,VWS V14.01,2013-04-23 17:20:00,
2013-04-23 12:25:00,37.7,20.8,30.07,WSW,242,5.0,10.0,50,-99.99,,CLR,-99.99,VWS V14.01,2013-04-23 17:25:00,
2013-04-23 12:30:00,37.9,20.0,30.07,WNW,298,5.0,6.0,48,-99.99,,BKN042,-99.99,VWS V14.01,2013-04-23 17:30:00,
2013-04-23 12:35:00,37.9,18.0,30.07,NW,325,0.0,10.0,44,-99.99,,BKN042,-99.99,VWS V14.01,2013-04-23 17:35:00,
2013-04-23 12:40:00,37.8,18.9,30.07,NW,311,4.0,10.0,46,-99.99,,BKN042,-99.99,VWS V14.01,2013-04-23 17:40:00,
2013-04-23 12:45:00,38.0,18.0,30.07,West,271,5.0,10.0,44,-99.99,,BKN042,-99.99,VWS V14.01,2013-04-23 17:45:00,
2013-04-23 12:50:00,37.7,17.2,30.07,NNW,339,2.0,10.0,43,-99.99,,BKN042,-99.99,VWS V14.01,2013-04-23 17:50:00,
2013-04-23 12:55:00,37.5,17.6,30.06,WNW,295,4.0,10.0,44,-99.99,,BKN042,-99.99,VWS V14.01,2013-04-23 17:55:00,
2013-04-23 13:00:00,37.6,18.2,30.06,NW,306,6.0,9.0,45,-99.99,,BKN042,-99.99,VWS V14.01,2013-04-23 18:00:00,
2013-04-23 13:05:00,38.0,20.1,30.06,West,278,3.0,10.0,48,-99.99,,BKN042,-99.99,VWS V14.01,2013-04-23 18:05:00,
2013-04-23 13:10:00,38.2,19.3,30.06,WSW,252,9.0,10.0,46,-99.99,,BKN042,-99.99,VWS V14.01,2013-04-23 18:10:00,
2013-04-23 13:15:00,38.1,19.2,30.06,NNW,338,8.0,12.0,46,-99.99,,BKN042,-99.99,VWS V14.01,2013-04-23 18:15:00,
2013-04-23 13:20:00,38.1,18.6,30.06,WNW,298,6.0,12.0,45,-99.99,,BKN042,-99.99,VWS V14.01,2013-04-23 18:20:00,
2013-04-23 13:25:00,38.0,18.6,30.06,NNW,332,3.0,14.0,45,-99.99,,BKN042,-99.99,VWS V14.01,2013-04-23 18:25:00,
2013-04-23 13:30:00,37.9,18.0,30.05,NW,311,5.0,11.0,44,-99.99,,BKN046,-99.99,VWS V14.01,2013-04-23 18:30:00,
2013-04-23 13:35:00,37.9,18.0,30.06,NNW,346,6.0,11.0,44,-99.99,,BKN046,-99.99,VWS V14.01,2013-04-23 18:35:00,
2013-04-23 13:40:00,38.0,18.0,30.05,NNW,335,13.0,13.0,44,-99.99,,BKN046,-99.99,VWS V14.01,2013-04-23 18:40:00,
2013-04-23 13:45:00,37.9,17.4,30.05,NNW,327,6.0,13.0,43,-99.99,,BKN046,-99.99,VWS V14.01,2013-04-23 18:45:00,
2013-04-23 13:50:00,38.1,18.1,30.05,West,280,5.0,13.0,44,-99.99,,BKN046,-99.99,VWS V14.01,2013-04-23 18:50:00,
2013-04-23 13:55:00,38.4,19.4,30.04,West,262,0.0,13.0,46,-99.99,,BKN046,-99.99,VWS V14.01,2013-04-23 18:55:00,
2013-04-23 14:00:00,38.5,19.5,30.04,WNW,286,8.0,10.0,46,-99.99,,BKN046,-99.99,VWS V14.01,2013-04-23 19:00:00,
2013-04-23 14:05:00,38.5,19.0,30.04,WNW,287,0.0,10.0,45,-99.99,,BKN046,-99.99,VWS V14.01,2013-04-23 19:05:00,
2013-04-23 14:10:00,38.4,19.4,30.04,NW,326,4.0,10.0,46,-99.99,,BKN046,-99.99,VWS V14.01,2013-04-23 19:10:00,
2013-04-23 14:15:00,38.5,19.5,30.04,WNW,302,4.0,10.0,46,-99.99,,BKN046,-99.99,VWS V14.01,2013-04-23 19:15:00,
2013-04-23 14:20:00,38.5,19.5,30.04,NW,310,6.0,13.0,46,-99.99,,BKN046,-99.99,VWS V14.01,2013-04-23 19:20:00,
2013-04-23 14:25:00,38.4,18.9,30.03,NW,315,0.0,13.0,45,-99.99,,BKN046,-99.99,VWS V14.01,2013-04-23 19:25:00,
2013-04-23 14:30:00,38.5,19.5,30.03,NW,306,5.0,8.0,46,-99.99,,CLR,-99.99,VWS V14.01,2013-04-23 19:30:00,
2013-04-23 14:35:00,38.6,20.1,30.03,NW,309,8.0,9.0,47,-99.99,,CLR,-99.99,VWS V14.01,2013-04-23 19:35:00,
2013-04-23 14:40:00,38.5,19.5,30.03,NW,313,3.0,10.0,46,-99.99,,CLR,-99.99,VWS V14.01,2013-04-23 19:40:00,
2013-04-23 14:45:00,38.7,20.2,30.03,WNW,303,4.0,10.0,47,-99.99,,CLR,-99.99,VWS V14.01,2013-04-23 19:45:00,
2013-04-23 14:50:00,38.6,18.6,30.03,NW,306,3.0,11.0,44,-99.99,,CLR,-99.99,VWS V14.01,2013-04-23 19:50:00,
2013-04-23 14:55:00,38.6,19.1,30.03,NNW,347,0.0,11.0,45,-99.99,,CLR,-99.99,VWS V14.01,2013-04-23 19:55:00,
2013-04-23 15:00:00,38.8,19.8,30.02,NW,318,2.0,5.0,46,-99.99,,CLR,-99.99,VWS V14.01,2013-04-23 20:00:00,
2013-04-23 15:05:00,38.7,18.1,30.02,NW,320,5.0,9.0,43,-99.99,,CLR,-99.99,VWS V14.01,2013-04-23 20:05:00,
2013-04-23 15:10:00,38.7,19.2,30.02,NNW,340,7.0,13.0,45,-99.99,,CLR,-99.99,VWS V14.01,2013-04-23 20:10:00,
2013-04-23 15:15:00,38.7,19.7,30.02,NNW,345,0.0,13.0,46,-99.99,,CLR,-99.99,VWS V14.01,2013-04-23 20:15:00,
2013-04-23 15:20:00,39.0,19.5,30.02,NW,304,6.0,13.0,45,-99.99,,CLR,-99.99,VWS V14.01,2013-04-23 20:20:00,
2013-04-23 15:25:00,38.9,18.9,30.02,North,352,8.0,13.0,44,-99.99,,CLR,-99.99,VWS V14.01,2013-04-23 20:25:00,
2013-04-23 15:30:00,38.9,19.9,30.02,WNW,298,5.0,8.0,46,-99.99,,CLR,-99.99,VWS V14.01,2013-04-23 20:30:00,
2013-04-23 15:35:00,39.0,19.0,30.01,NNW,334,4.0,11.0,44,-99.99,,CLR,-99.99,VWS V14.01,2013-04-23 20:35:00,
2013-04-23 15:40:00,39.0,19.5,30.01,NNW,330,0.0,11.0,45,-99.99,,CLR,-99.99,VWS V14.01,2013-04-23 20:40:00,
2013-04-23 15:45:00,39.0,19.5,30.01,WNW,290,4.0,11.0,45,-99.99,,CLR,-99.99,VWS V14.01,2013-04-23 20:45:00,
2013-04-23 15:50:00,39.0,20.0,30.01,NNW,327,10.0,13.0,46,-99.99,,CLR,-99.99,VWS V14.01,2013-04-23 20:50:00,
2013-04-23 15:55:00,39.0,20.0,30.01,NW,314,6.0,13.0,46,-99.99,,CLR,-99.99,VWS V14.01,2013-04-23 20:55:00,
2013-04-23 16:00:00,39.1,20.1,30.01,NNW,327,0.0,9.0,46,-99.99,,CLR,-99.99,VWS V14.01,2013-04-23 21:00:00,
2013-04-23 16:05:00,39.1,20.1,30.00,NW,305,8.0,13.0,46,-99.99,,CLR,-99.99,VWS V14.01,2013-04-23 21:05:00,
2013-04-23 16:10:00,39.1,20.6,30.00,West,262,8.0,13.0,47,-99.99,,CLR,-99.99,VWS V14.01,2013-04-23 21:10:00,
2013-04-23 16:15:00,39.2,19.7,30.00,WNW,292,3.0,13.0,45,-99.99,,CLR,-99.99,VWS V14.01,2013-04-23 21:15:00,
2013-04-23 16:20:00,39.2,20.2,30.00,NNW,339,3.0,13.0,46,-99.99,,CLR,-99.99,VWS V14.01,2013-04-23 21:20:00,
2013-04-23 16:25:00,39.3,19.8,30.00,WSW,237,0.0,13.0,45,-99.99,,CLR,-99.99,VWS V14.01,2013-04-23 21:25:00,
2013-04-23 16:30:00,39.3,20.3,30.00,WSW,248,0.0,5.0,46,-99.99,,CLR,-99.99,VWS V14.01,2013-04-23 21:30:00,
2013-04-23 16:35:00,39.6,19.5,30.01,NW,313,0.0,7.0,44,-99.99,,CLR,-99.99,VWS V14.01,2013-04-23 21:35:00,
2013-04-23 16:40:00,39.5,18.9,30.01,WNW,294,9.0,9.0,43,-99.99,,CLR,-99.99,VWS V14.01,2013-04-23 21:40:00,
2013-04-23 16:45:00,39.4,18.8,30.01,WNW,299,0.0,9.0,43,-99.99,,CLR,-99.99,VWS V14.01,2013-04-23 21:45:00,
2013-04-23 16:50:00,39.3,18.7,30.01,NW,318,3.0,9.0,43,-99.99,,CLR,-99.99,VWS V14.01,2013-04-23 21:50:00,
2013-04-23 16:55:00,39.3,18.1,30.00,NW,313,2.0,11.0,42,-99.99,,CLR,-99.99,VWS V14.01,2013-04-23 21:55:00,
2013-04-23 17:00:00,39.3,18.7,30.00,WNW,303,0.0,5.0,43,-99.99,,CLR,-99.99,VWS V14.01,2013-04-23 22:00:00,
2013-04-23 17:05:00,39.3,18.7,30.00,NW,325,0.0,8.0,43,-99.99,,CLR,-99.99,VWS V14.01,2013-04-23 22:05:00,
2013-04-23 17:11:00,39.4,18.2,30.00,West,267,5.0,8.0,42,-99.99,,CLR,-99.99,VWS V14.01,2013-04-23 22:11:00,
2013-04-23 17:16:00,39.3,17.6,30.00,WNW,303,4.0,8.0,41,-99.99,,CLR,-99.99,VWS V14.01,2013-04-23 22:16:00,
2013-04-23 17:21:00,39.4,19.3,30.00,NW,313,0.0,8.0,44,-99.99,,CLR,-99.99,VWS V14.01,2013-04-23 22:21:00,
2013-04-23 17:26:00,39.5,18.9,30.00,NNW,329,0.0,8.0,43,-99.99,,CLR,-99.99,VWS V14.01,2013-04-23 22:26:00,
2013-04-23 17:31:00,39.5,18.9,30.00,NW,320,3.0,9.0,43,-99.99,,CLR,-99.99,VWS V14.01,2013-04-23 22:31:00,
2013-04-23 17:36:00,39.6,20.0,29.99,NW,308,2.0,9.0,45,-99.99,,CLR,-99.99,VWS V14.01,2013-04-23 22:36:00,
2013-04-23 17:41:00,39.6,18.4,29.99,WNW,300,0.0,9.0,42,-99.99,,CLR,-99.99,VWS V14.01,2013-04-23 22:41:00,
2013-04-23 17:46:00,39.6,18.4,29.99,NNE,13,0.0,9.0,42,-99.99,,CLR,-99.99,VWS V14.01,2013-04-23 22:46:00,
2013-04-23 17:51:00,39.7,17.4,29.99,North,351,3.0,9.0,40,-99.99,,CLR,-99.99,VWS V14.01,2013-04-23 22:51:00,
2013-04-23 17:56:00,39.5,18.9,29.99,WNW,295,4.0,9.0,43,-99.99,,CLR,-99.99,VWS V14.01,2013-04-23 22:56:00,
2013-04-23 18:01:00,39.4,18.8,29.99,NNW,346,3.0,5.0,43,-99.99,,CLR,-99.99,VWS V14.01,2013-04-23 23:01:00,
2013-04-23 18:06:00,39.3,17.6,29.99,NNW,328,0.0,7.0,41,-99.99,,CLR,-99.99,VWS V14.01,2013-04-23 23:06:00,
2013-04-23 18:11:00,39.3,18.7,29.99,NNW,334,6.0,8.0,43,-99.99,,CLR,-99.99,VWS V14.01,2013-04-23 23:11:00,
2013-04-23 18:16:00,39.3,19.2,29.99,WNW,303,6.0,10.0,44,-99.99,,CLR,-99.99,VWS V14.01,2013-04-23 23:16:00,
2013-04-23 18:21:00,39.3,18.1,29.99,NNW,348,0.0,10.0,42,-99.99,,CLR,-99.99,VWS V14.01,2013-04-23 23:21:00,
2013-04-23 18:26:00,39.3,18.7,29.99,NNW,331,0.0,10.0,43,-99.99,,CLR,-99.99,VWS V14.01,2013-04-23 23:26:00,
2013-04-23 18:31:00,39.2,18.6,29.98,North,350,0.0,6.0,43,-99.99,,CLR,-99.99,VWS V14.01,2013-04-23 23:31:00,
2013-04-23 18:36:00,39.1,18.0,29.99,NW,321,0.0,7.0,42,-99.99,,CLR,-99.99,VWS V14.01,2013-04-23 23:36:00,
2013-04-23 18:41:00,39.1,19.6,29.99,NW,309,0.0,7.0,45,-99.99,,CLR,-99.99,VWS V14.01,2013-04-23 23:41:00,
2013-04-23 18:46:00,39.0,19.0,29.99,North,353,0.0,9.0,44,-99.99,,CLR,-99.99,VWS V14.01,2013-04-23 23:46:00,
2013-04-23 18:51:00,38.9,18.3,29.99,North,350,4.0,9.0,43,-99.99,,CLR,-99.99,VWS V14.01,2013-04-23 23:51:00,
2013-04-23 18:56:00,38.9,19.4,29.98,NNW,344,0.0,9.0,45,-99.99,,CLR,-99.99,VWS V14.01,2013-04-23 23:56:00,
2013-04-23 19:01:00,38.8,18.8,29.98,NNW,347,3.0,8.0,44,-99.99,,CLR,-99.99,VWS V14.01,2013-04-24 00:01:00,
2013-04-23 19:06:00,38.7,19.2,29.98,NNW,346,0.0,8.0,45,-99.99,,CLR,-99.99,VWS V14.01,2013-04-24 00:06:00,
2013-04-23 19:11:00,38.6,19.1,29.98,NW,312,4.0,10.0,45,-99.99,,CLR,-99.99,VWS V14.01,2013-04-24 00:11:00,
2013-04-23 19:16:00,38.5,19.0,29.98,NNW,336,1.0,10.0,45,-99.99,,CLR,-99.99,VWS V14.01,2013-04-24 00:16:00,
2013-04-23 19:21:00,38.4,19.9,29.98,NW,322,0.0,10.0,47,-99.99,,CLR,-99.99,VWS V14.01,2013-04-24 00:21:00,
2013-04-23 19:26:00,38.2,18.8,29.98,NNW,331,9.0,10.0,45,-99.99,,CLR,-99.99,VWS V14.01,2013-04-24 00:26:00,
2013-04-23 19:32:00,38.0,18.0,29.98,NNW,338,4.0,10.0,44,-99.99,,CLR,-99.99,VWS V14.01,2013-04-24 00:32:00,
2013-04-23 19:37:00,37.9,18.0,29.98,North,0,0.0,10.0,44,-99.99,,CLR,-99.99,VWS V14.01,2013-04-24 00:37:00,
2013-04-23 19:42:00,37.8,18.9,29.98,WNW,303,0.0,10.0,46,-99.99,,CLR,-99.99,VWS V14.01,2013-04-24 00:42:00,
2013-04-23 19:47:00,37.7,18.3,29.98,NW,323,0.0,10.0,45,-99.99,,CLR,-99.99,VWS V14.01,2013-04-24 00:47:00,
2013-04-23 19:52:00,37.5,19.1,29.98,NW,305,0.0,10.0,47,-99.99,,CLR,-99.99,VWS V14.01,2013-04-24 00:52:00,
2013-04-23 19:57:00,37.3,19.4,29.98,NW,314,0.0,10.0,48,-99.99,,CLR,-99.99,VWS V14.01,2013-04-24 00:57:00,
2013-04-23 20:02:00,37.1,19.2,29.98,WNW,299,0.0,5.0,48,-99.99,,CLR,-99.99,VWS V14.01,2013-04-24 01:02:00,
2013-04-23 20:07:00,36.9,19.5,29.98,WNW,299,0.0,5.0,49,-99.99,,CLR,-99.99,VWS V14.01,2013-04-24 01:07:00,
2013-04-23 20:12:00,36.7,19.4,29.98,NW,312,0.0,5.0,49,-99.99,,CLR,-99.99,VWS V14.01,2013-04-24 01:12:00,
2013-04-23 20:17:00,36.4,19.5,29.99,NW,312,0.0,5.0,50,-99.99,,CLR,-99.99,VWS V14.01,2013-04-24 01:17:00,
2013-04-23 20:22:00,36.1,19.7,29.99,NW,312,0.0,5.0,51,-99.99,,CLR,-99.99,VWS V14.01,2013-04-24 01:22:00,
2013-04-23 20:27:00,35.8,19.9,29.99,NW,312,0.0,5.0,52,-99.99,,CLR,-99.99,VWS V14.01,2013-04-24 01:27:00,
2013-04-23 20:32:00,35.6,20.2,29.98,NW,312,0.0,0.0,53,-99.99,,CLR,-99.99,VWS V14.01,2013-04-24 01:32:00,
2013-04-23 20:37:00,35.1,20.6,29.98,NW,312,0.0,0.0,55,-99.99,,CLR,-99.99,VWS V14.01,2013-04-24 01:37:00,
2013-04-23 20:42:00,34.5,20.0,29.99,NW,312,0.0,0.0,55,-99.99,,CLR,-99.99,VWS V14.01,2013-04-24 01:42:00,
2013-04-23 20:47:00,33.9,20.7,29.99,NW,312,0.0,0.0,58,-99.99,,CLR,-99.99,VWS V14.01,2013-04-24 01:47:00,
2013-04-23 20:52:00,33.4,20.6,29.99,NW,312,0.0,0.0,59,-99.99,,CLR,-99.99,VWS V14.01,2013-04-24 01:52:00,
2013-04-23 20:57:00,32.6,20.7,29.99,NW,312,0.0,0.0,61,-99.99,,CLR,-99.99,VWS V14.01,2013-04-24 01:57:00,
2013-04-23 21:02:00,32.2,20.7,29.99,NW,312,0.0,0.0,62,-99.99,,CLR,-99.99,VWS V14.01,2013-04-24 02:02:00,
2013-04-23 21:07:00,31.9,20.4,29.99,NW,312,0.0,0.0,62,-99.99,,CLR,-99.99,VWS V14.01,2013-04-24 02:07:00,
2013-04-23 21:13:00,31.6,20.5,29.99,NW,312,0.0,0.0,63,-99.99,,CLR,-99.99,VWS V14.01,2013-04-24 02:13:00,
2013-04-23 21:18:00,31.2,20.8,29.99,NW,312,0.0,0.0,65,-99.99,,CLR,-99.99,VWS V14.01,2013-04-24 02:18:00,
2013-04-23 21:23:00,31.0,20.6,29.99,NW,312,0.0,0.0,65,-99.99,,CLR,-99.99,VWS V14.01,2013-04-24 02:23:00,
2013-04-23 21:28:00,30.8,20.4,29.99,NW,312,0.0,0.0,65,-99.99,,CLR,-99.99,VWS V14.01,2013-04-24 02:28:00,
2013-04-23 21:36:00,30.7,21.1,29.99,NW,307,0.0,0.0,67,-99.99,,CLR,-99.99,VWS V14.01,2013-04-24 02:36:00,
2013-04-23 21:41:00,30.7,21.1,29.99,West,274,0.0,0.0,67,-99.99,,CLR,-99.99,VWS V14.01,2013-04-24 02:41:00,
2013-04-23 21:47:00,30.6,21.3,29.99,West,273,0.0,0.0,68,-99.99,,CLR,-99.99,VWS V14.01,2013-04-24 02:47:00,
2013-04-23 21:52:00,30.7,21.4,29.99,WSW,245,0.0,3.0,68,-99.99,,CLR,-99.99,VWS V14.01,2013-04-24 02:52:00,
2013-04-23 21:57:00,30.7,21.4,29.99,West,260,0.0,3.0,68,-99.99,,CLR,-99.99,VWS V14.01,2013-04-24 02:57:00,
2013-04-23 22:02:00,30.7,21.4,29.99,SW,233,0.0,2.0,68,-99.99,,CLR,-99.99,VWS V14.01,2013-04-24 03:02:00,
2013-04-23 22:08:00,30.7,21.8,29.99,West,266,0.0,3.0,69,-99.99,,CLR,-99.99,VWS V14.01,2013-04-24 03:08:00,
2013-04-23 22:13:00,30.6,21.6,29.99,NW,307,0.0,5.0,69,-99.99,,CLR,-99.99,VWS V14.01,2013-04-24 03:13:00,
2013-04-23 22:18:00,30.5,21.6,29.98,WNW,298,0.0,5.0,69,-99.99,,CLR,-99.99,VWS V14.01,2013-04-24 03:18:00,
2013-04-23 22:23:00,30.5,21.2,29.98,West,279,0.0,5.0,68,-99.99,,CLR,-99.99,VWS V14.01,2013-04-24 03:23:00,
2013-04-23 22:29:00,30.4,21.5,29.98,WNW,282,0.0,5.0,69,-99.99,,CLR,-99.99,VWS V14.01,2013-04-24 03:29:00,
2013-04-23 22:34:00,30.2,21.3,29.98,West,277,0.0,0.0,69,-99.99,,CLR,-99.99,VWS V14.01,2013-04-24 03:34:00,
2013-04-23 22:40:00,30.0,21.1,29.98,WNW,288,0.0,0.0,69,-99.99,,CLR,-99.99,VWS V14.01,2013-04-24 03:40:00,
2013-04-23 22:45:00,29.8,20.9,29.98,NW,314,0.0,4.0,69,-99.99,,CLR,-99.99,VWS V14.01,2013-04-24 03:45:00,
2013-04-23 22:50:00,29.7,20.8,29.98,WSW,258,0.0,4.0,69,-99.99,,CLR,-99.99,VWS V14.01,2013-04-24 03:50:00,
2013-04-23 22:56:00,29.6,20.4,29.98,NW,313,0.0,4.0,68,-99.99,,CLR,-99.99,VWS V14.01,2013-04-24 03:56:00,
2013-04-23 23:01:00,29.4,20.2,29.97,NW,321,0.0,5.0,68,-99.99,,CLR,-99.99,VWS V14.01,2013-04-24 04:01:00,
2013-04-23 23:02:00,29.4,20.2,29.98,NW,321,0.0,5.0,68,-99.99,,CLR,-99.99,VWS V14.01,2013-04-24 04:02:00,
2013-04-23 23:07:00,29.4,19.8,29.98,NW,325,2.0,5.0,67,-99.99,,CLR,-99.99,VWS V14.01,2013-04-24 04:07:00,
2013-04-23 23:13:00,29.3,19.7,29.97,NW,306,0.0,5.0,67,-99.99,,CLR,-99.99,VWS V14.01,2013-04-24 04:13:00,
2013-04-23 23:18:00,29.3,19.7,29.97,WNW,303,0.0,5.0,67,-99.99,,CLR,-99.99,VWS V14.01,2013-04-24 04:18:00,
2013-04-23 23:23:00,29.1,19.9,29.97,WNW,297,0.0,5.0,68,-99.99,,CLR,-99.99,VWS V14.01,2013-04-24 04:23:00,
2013-04-23 23:28:00,28.9,19.7,29.97,NW,305,0.0,5.0,68,-99.99,,CLR,-99.99,VWS V14.01,2013-04-24 04:28:00,
2013-04-23 23:33:00,28.7,19.8,29.97,NW,305,0.0,0.0,69,-99.99,,BKN049,-99.99,VWS V14.01,2013-04-24 04:33:00,
2013-04-23 23:38:00,28.6,19.7,29.97,NW,305,0.0,0.0,69,-99.99,,BKN049,-99.99,VWS V14.01,2013-04-24 04:38:00,
2013-04-23 23:43:00,28.5,19.6,29.97,NW,305,0.0,0.0,69,-99.99,,BKN049,-99.99,VWS V14.01,2013-04-24 04:43:00,
2013-04-23 23:48:00,28.2,19.7,29.97,WNW,301,0.0,0.0,70,-99.99,,BKN049,-99.99,VWS V14.01,2013-04-24 04:48:00,
2013-04-23 23:53:00,27.9,20.1,29.97,WNW,301,0.0,0.0,72,-99.99,,BKN049,-99.99,VWS V14.01,2013-04-24 04:53:00,
2013-04-23 23:58:00,27.6,20.4,29.97,WNW,301,0.0,0.0,74,-99.99,,BKN049,-99.99,VWS V14.01,2013-04-24 04:58:00,